Theta_e
323 323 323 324 324 324 324 324 324 324 323 323 322 321 320 317 316 314 313 311 309 307 306 306 308 309 309 310 309 309 308 308 308 308 307 307 305 305 305 304 303 303 303 302 301 301 301 301 301 301 300 300 300 300 300 300 300 300 300 300 300 300 300 300 300 300 300 300 301 301 301 301 301 301
323 323 323 323 324 324 324 324 324 323 323 322 322 321 318 315 314 311 310 309 308 307 306 307 309 310 310 310 309 309 308 308 308 308 308 307 307 307 306 306 306 305 304 303 303 303 302 301 301 301 301 301 301 301 301 300 300 300 300 300 300 300 300 300 300 300 300 300 300 300 300 300 300 301
322 322 322 323 324 324 324 325 323 322 322 321 321 321 317 314 313 310 308 308 308 308 307 308 310 310 310 310 309 309 308 308 308 308 308 308 308 308 307 307 307 307 306 306 306 305 304 303 302 302 302 301 301 301 301 301 300 300 299 299 299 299 299 299 299 299 299 299 299 300 299 299 300 300
321 321 322 323 324 325 324 324 323 321 321 321 321 320 316 313 311 309 308 309 309 308 308 308 310 310 310 310 309 309 308 308 308 308 308 308 308 308 308 308 308 308 308 307 307 307 307 305 304 303 303 302 301 301 301 301 300 299 299 299 299 299 299 299 299 299 299 299 299 299 299 299 299 299
319 320 322 323 324 324 324 323 322 321 321 321 320 318 316 313 311 310 310 310 310 309 308 308 309 309 309 309 309 309 309 309 308 308 308 308 308 308 309 309 309 309 309 308 308 308 308 307 306 305 304 303 301 301 301 301 300 299 299 299 298 299 299 299 299 299 299 298 298 298 298 298 298 298
317 318 320 322 323 324 324 323 322 321 321 320 318 316 314 313 312 311 311 310 310 310 309 309 309 309 309 309 309 309 309 309 309 309 309 308 308 308 309 309 309 309 309 309 309 309 309 308 307 306 305 303 301 301 301 300 300 299 299 298 298 299 299 299 299 299 298 298 298 298 297 297 297 297
315 316 319 321 322 323 323 323 322 321 320 318 316 314 313 313 312 312 312 311 310 310 310 310 309 308 309 309 309 309 310 309 309 309 309 309 309 309 309 309 309 309 309 309 309 309 309 309 308 307 306 303 301 300 300 300 300 299 299 298 298 298 298 299 299 298 298 298 298 297 297 297 297 297
314 315 318 321 322 322 322 321 320 320 319 318 317 316 315 314 314 313 313 312 311 310 310 310 310 309 309 309 309 309 310 310 309 309 309 309 309 309 309 309 309 309 309 309 309 309 309 309 308 308 306 303 301 300 300 300 299 299 298 298 298 298 298 299 298 298 298 297 297 297 297 297 297 297
314 314 316 319 321 320 319 319 318 318 317 317 317 317 317 317 316 315 314 313 312 311 310 310 310 309 309 309 308 309 309 309 309 310 309 309 309 309 309 309 309 309 309 309 309 309 309 309 309 308 305 302 301 300 300 300 299 299 298 298 298 298 298 298 298 298 297 297 297 297 297 296 296 297
313 314 314 316 317 317 316 316 315 315 315 315 315 315 316 316 316 316 316 315 314 313 311 310 311 310 310 310 309 309 309 308 309 309 310 310 310 310 309 309 309 309 309 309 309 309 309 309 309 307 304 301 300 300 300 299 299 299 298 298 298 298 298 298 298 297 297 297 297 297 297 297 297 297
312 313 314 314 314 315 315 314 314 314 314 314 314 314 314 314 314 315 316 316 316 315 312 311 311 311 310 310 310 310 309 309 309 309 309 309 309 310 310 309 309 309 309 309 309 309 309 309 308 306 303 301 300 300 300 299 298 298 298 298 297 297 297 297 297 297 297 297 297 297 297 296 297 297
311 312 313 314 314 314 314 314 314 314 314 313 313 314 313 313 314 314 315 316 316 315 312 311 313 312 311 311 310 310 310 310 310 310 309 309 309 309 309 310 309 309 309 309 309 309 309 308 308 306 303 301 300 300 299 298 298 298 297 297 297 297 296 296 296 296 296 296 296 296 296 296 296 296
313 313 313 314 314 314 314 314 314 314 314 314 314 314 314 314 314 314 314 314 314 314 312 312 314 313 312 311 311 311 312 311 311 311 310 310 309 309 309 309 310 309 309 309 309 309 309 309 308 306 303 300 300 299 298 298 297 297 297 297 296 296 296 296 296 296 296 296 296 296 296 296 296 296
315 315 314 314 314 314 314 314 314 314 314 315 314 314 314 314 314 315 314 314 314 314 313 313 314 314 313 313 312 312 312 312 311 311 311 310 310 309 309 309 309 309 309 309 309 309 309 309 309 306 302 300 299 299 298 298 297 297 297 296 296 296 296 296 296 296 296 296 296 296 296 296 296 296
315 315 315 315 315 315 314 314 314 314 314 315 314 314 314 314 315 315 315 315 315 314 314 314 314 314 314 314 313 313 312 312 312 311 311 311 310 310 310 310 310 309 309 309 309 309 309 309 308 304 301 300 299 298 298 297 297 297 296 296 296 296 296 296 296 296 296 296 297 296 296 296 296 296
312 313 314 315 315 314 314 314 314 314 313 314 314 314 314 314 314 314 315 315 314 314 314 314 315 315 315 314 314 313 313 313 312 312 312 311 311 310 310 309 310 310 310 309 310 310 310 310 307 303 300 299 298 298 297 297 296 296 296 296 296 296 296 296 296 297 297 297 297 296 296 296 296 296
312 312 312 313 313 313 313 313 313 313 312 312 312 313 313 313 312 313 313 313 314 314 314 314 314 315 314 314 314 314 314 313 313 313 312 312 312 311 310 310 310 310 310 309 310 310 310 308 304 301 299 299 298 297 297 296 296 296 296 296 296 296 296 296 296 297 297 297 297 296 296 296 296 296
314 313 313 312 312 312 312 312 312 312 312 312 311 312 312 311 312 312 312 312 313 313 314 314 314 315 315 315 315 314 314 313 313 313 313 313 312 311 310 310 310 310 310 310 310 310 309 306 302 300 299 298 297 297 296 296 296 296 296 296 296 296 296 296 296 296 296 296 296 296 296 296 296 296
314 314 314 314 314 314 314 313 313 313 313 313 313 313 313 313 313 313 313 313 313 313 314 314 315 315 315 315 315 315 314 314 313 313 312 312 311 310 310 310 310 310 310 310 310 309 306 303 300 299 298 297 297 296 296 296 296 296 296 296 296 296 296 296 296 296 295 295 295 295 295 295 295 295
315 315 314 314 315 315 315 314 315 315 315 315 315 315 315 315 315 315 314 314 315 314 315 314 315 315 315 315 315 315 315 314 314 313 312 311 311 310 310 309 310 310 310 310 309 306 303 301 299 298 298 297 296 296 296 296 296 296 296 296 296 296 296 295 295 295 294 294 294 295 295 295 295 295
317 317 316 316 316 316 315 315 315 315 315 315 315 315 315 316 316 316 316 316 316 316 316 316 316 315 315 315 315 315 315 315 314 314 313 312 311 311 310 310 310 310 310 309 306 302 300 299 299 298 297 296 296 296 296 296 295 295 295 295 296 295 295 295 294 294 294 294 294 294 294 295 294 294
318 318 318 318 318 317 317 317 316 316 316 316 316 316 316 316 316 317 317 317 316 316 316 316 316 315 315 315 314 314 314 314 314 313 312 312 312 311 310 311 311 310 308 305 302 300 299 299 298 297 296 296 296 296 295 295 295 295 295 295 295 295 295 294 294 294 294 294 294 294 294 294 294 294
318 318 318 318 318 318 318 318 318 318 317 317 317 317 317 317 317 317 317 317 316 316 316 316 316 315 314 313 313 313 313 313 313 312 311 311 311 311 312 312 310 307 305 303 300 299 298 297 296 296 296 295 296 296 295 295 295 295 295 295 295 295 294 294 294 294 294 294 294 294 294 294 294 294
317 317 317 317 317 317 317 317 317 317 317 317 317 317 317 317 317 317 317 317 316 316 316 316 315 315 314 314 313 313 313 313 312 312 311 310 310 309 310 310 307 304 302 300 299 298 297 296 296 295 295 295 295 295 295 295 295 295 295 295 295 294 294 293 293 293 294 294 294 294 294 294 294 294
314 315 315 315 316 316 316 316 316 316 316 316 316 316 315 315 315 315 315 316 316 316 316 315 315 314 314 313 313 313 313 312 312 312 311 309 307 304 304 304 303 301 300 299 298 297 296 295 295 295 295 295 295 295 295 295 295 295 296 295 294 294 293 293 293 294 294 294 294 294 294 294 294 294
312 312 313 313 314 315 315 315 315 314 314 314 314 314 313 313 312 312 312 313 314 315 316 315 315 314 313 312 312 312 311 311 311 310 308 306 304 301 300 300 300 299 298 297 296 295 295 295 295 295 295 295 295 295 295 295 295 295 296 295 294 294 293 294 294 294 294 294 294 294 294 294 294 293
308 309 309 311 312 313 313 314 314 313 313 312 312 312 312 312 312 311 311 311 312 313 314 314 314 314 313 312 312 311 310 310 308 306 304 303 302 300 299 299 299 298 297 296 295 295 295 294 294 294 294 294 294 294 294 295 295 295 295 295 294 294 294 294 294 294 294 295 294 294 294 293 293 293
302 303 303 305 307 309 311 312 313 313 313 312 311 311 312 312 312 311 311 310 310 311 312 313 314 314 314 312 311 311 309 307 305 304 302 302 300 299 299 299 298 297 296 295 295 294 294 294 294 294 294 294 294 294 294 294 295 295 295 295 295 294 294 294 294 294 294 294 294 293 293 293 292 293
299 299 300 300 301 303 305 308 311 312 313 313 312 312 312 312 311 311 310 309 309 310 311 312 314 314 314 313 311 308 307 305 304 303 302 301 300 299 299 298 297 296 295 294 294 294 294 294 294 294 294 294 294 293 294 294 295 294 294 295 295 294 294 294 294 294 294 294 293 293 292 292 292 292
299 299 299 299 299 300 301 303 307 311 313 313 313 313 312 312 311 310 309 309 308 308 310 312 313 313 312 310 308 306 304 303 303 302 301 300 299 298 298 297 296 294 294 294 294 294 294 294 294 294 294 294 293 293 293 294 295 294 294 294 295 294 294 294 293 293 293 293 293 292 292 292 292 292
298 299 299 299 300 300 300 302 304 308 311 313 313 313 313 312 311 309 309 308 307 308 310 312 312 310 308 305 303 303 302 303 302 301 299 299 298 298 297 296 294 294 293 293 293 293 294 294 294 294 294 293 293 293 293 294 295 295 295 294 294 294 294 293 293 293 293 293 293 292 292 292 292 293
299 299 300 300 300 301 302 303 304 307 310 311 312 312 312 311 310 309 309 308 308 308 310 311 310 308 305 303 302 302 302 301 301 299 299 298 298 297 296 294 294 293 293 293 293 293 294 294 294 294 293 293 293 293 294 295 295 295 295 294 294 293 293 293 293 293 293 292 293 292 292 292 293 293
299 300 300 301 302 303 303 303 304 306 307 308 310 310 310 309 308 308 308 309 308 308 309 309 308 306 304 304 303 302 301 300 300 299 298 298 297 295 294 293 293 293 293 293 293 293 293 294 294 293 293 293 293 293 294 295 295 294 294 294 294 293 292 292 292 292 292 292 293 293 293 292 293 293
299 300 301 301 303 305 305 305 305 306 307 307 308 309 309 309 308 308 308 309 309 309 309 307 306 305 304 303 302 301 300 300 299 298 297 296 295 294 293 293 293 292 293 293 293 293 293 293 293 293 293 293 293 293 294 295 295 294 294 294 293 293 292 292 292 292 292 292 293 293 293 292 292 292
299 299 300 301 302 303 305 306 306 306 306 307 307 308 307 308 308 307 307 308 309 309 307 305 305 304 304 303 301 300 299 299 298 297 296 294 294 293 293 293 292 292 293 293 293 293 293 293 293 293 293 293 293 293 294 295 295 294 293 293 293 293 293 292 292 292 292 292 292 292 292 292 292 292
299 299 300 300 301 302 303 305 305 305 304 304 305 305 305 305 306 306 306 307 309 308 306 304 304 304 302 301 300 299 298 298 296 295 294 293 293 293 292 292 292 292 293 293 293 293 293 293 293 293 294 294 294 294 294 294 294 294 293 293 292 293 293 292 292 293 292 292 292 292 292 291 292 292
299 299 300 301 302 302 303 304 304 304 303 303 303 303 304 304 305 306 306 307 306 305 304 303 303 302 300 299 299 298 297 295 294 293 293 293 292 292 292 292 292 292 292 293 293 293 293 293 293 293 294 294 295 294 294 294 294 293 293 292 292 292 293 292 293 293 292 291 291 291 291 291 291 291
299 299 300 302 303 304 304 304 304 303 303 303 302 302 303 304 305 305 306 305 304 303 302 301 300 300 299 298 297 296 295 294 293 293 292 292 292 292 292 292 292 292 292 293 292 292 292 292 293 293 294 294 295 294 294 293 293 293 292 292 292 293 293 293 293 293 292 291 291 290 290 290 290 291
299 299 300 301 303 303 303 302 302 302 302 302 302 302 303 304 304 303 303 302 301 301 300 299 298 298 297 296 295 294 294 293 292 292 292 292 291 291 291 291 291 292 292 292 292 292 292 292 293 293 294 294 294 294 293 293 293 293 292 292 293 293 293 293 292 292 292 291 291 290 290 290 290 291
299 300 300 301 301 301 302 302 302 302 302 302 303 302 302 302 302 301 300 300 299 299 298 297 296 296 295 294 293 293 293 292 292 292 291 291 291 291 291 291 291 291 291 291 291 291 292 292 293 294 294 294 293 293 293 293 293 293 293 293 293 293 293 293 292 292 291 291 291 290 290 290 290 291
299 300 301 301 301 301 302 302 302 302 302 302 301 301 300 300 300 300 299 298 298 297 297 296 295 294 293 292 292 292 292 292 291 291 291 291 291 291 291 291 291 290 290 290 291 292 292 292 293 293 293 293 293 293 293 293 293 293 293 293 294 293 293 293 292 292 291 291 290 290 290 290 290 291
300 300 301 301 301 301 301 301 301 301 301 300 299 299 300 300 299 298 297 296 296 296 295 294 293 293 292 292 292 292 292 291 291 291 291 291 291 291 291 290 290 290 290 290 291 292 292 292 292 293 293 293 293 293 293 293 293 293 294 294 294 294 293 292 292 292 291 290 290 290 289 290 290 290
299 300 300 300 300 299 299 299 299 299 298 298 298 299 299 299 298 297 296 296 295 295 294 293 292 292 292 292 292 291 291 290 290 290 290 290 290 290 290 290 290 290 290 290 291 291 292 292 292 292 293 293 293 293 293 293 293 293 294 294 294 294 293 292 292 292 291 291 290 290 289 289 290 290
299 300 300 300 299 299 298 297 297 297 297 298 298 299 298 298 297 296 296 296 295 294 293 292 292 292 292 291 291 290 290 290 290 290 290 290 290 290 290 290 290 290 290 290 291 291 292 292 292 292 293 293 293 293 293 293 293 293 294 294 294 293 293 292 292 292 291 291 290 290 290 289 290 290
299 300 300 299 298 298 297 296 296 296 297 298 298 298 297 297 297 296 296 295 294 293 292 292 292 291 290 290 290 290 290 290 290 290 290 290 290 290 290 290 290 290 290 290 291 291 291 291 292 292 292 292 292 293 293 293 293 293 293 294 293 293 292 292 292 292 292 291 290 290 290 290 290 290
Wind_Speed
9 8 8 9 11 10 10 9 8 10 11 10 12 12 6 4 11 19 17 13 11 10 11 11 11 11 10 9 9 8 8 8 7 7 6 7 7 7 7 8 9 10 11 12 12 13 13 12 11 11 12 13 13 14 14 15 15 15 15 14 14 13 13 13 13 13 13 13 14 14 14 14 14 15
8 8 8 9 11 11 11 10 9 9 10 11 11 10 5 3 6 13 17 15 12 11 11 11 10 9 9 9 9 9 9 9 8 7 6 5 5 5 5 6 7 9 10 11 12 14 15 15 15 15 16 16 16 16 17 17 18 17 17 16 15 15 15 15 15 15 15 15 15 15 15 15 15 15
5 6 8 9 11 12 11 11 10 10 11 11 11 10 6 3 4 8 14 15 13 12 11 10 9 9 8 8 9 9 9 9 8 7 5 5 5 4 3 4 5 7 9 11 12 14 15 16 18 19 19 19 19 19 20 20 20 19 18 16 16 16 16 16 16 16 16 16 16 16 17 17 17 17
3 3 5 8 11 12 12 11 11 12 12 10 10 10 8 5 6 9 11 11 11 12 10 9 9 9 8 8 8 9 9 9 9 8 6 5 5 4 2 2 4 6 8 10 12 14 15 17 19 21 21 21 21 21 22 22 22 21 19 17 17 17 17 18 18 18 18 18 18 18 18 18 18 18
2 1 2 7 10 11 12 12 12 12 12 11 11 11 9 7 7 8 7 7 8 11 11 11 11 9 8 8 8 9 9 8 9 9 7 6 5 4 1 1 3 5 7 9 11 14 16 18 20 22 22 22 22 22 22 23 22 21 20 18 18 18 18 19 20 20 21 21 21 20 19 19 19 19
1 2 1 5 8 11 11 12 12 12 12 11 11 10 9 8 8 8 7 6 6 7 9 10 11 10 9 8 9 9 8 8 8 9 8 7 7 5 4 3 4 5 7 8 11 13 16 19 21 22 23 22 22 22 22 23 22 22 20 19 18 18 18 19 20 21 22 23 24 24 23 22 20 19
1 2 1 3 7 11 12 12 11 12 12 11 10 9 8 9 9 10 10 9 8 6 6 8 10 10 10 10 10 10 10 9 9 10 9 9 8 7 6 6 7 7 8 9 11 14 17 19 21 22 23 23 22 22 22 22 22 21 20 19 18 18 18 18 19 20 22 23 24 25 24 22 21 20
1 1 2 4 8 11 13 12 11 11 11 10 9 9 10 10 11 12 13 13 12 10 8 7 8 10 11 12 12 12 12 11 11 11 10 10 10 9 9 9 9 9 9 11 13 15 17 19 21 23 24 24 23 22 22 22 21 21 20 19 18 17 17 17 18 20 21 23 24 24 22 21 21 21
1 2 3 5 9 11 11 11 10 10 9 9 10 11 12 13 13 14 15 15 15 14 12 9 9 11 13 14 15 15 14 13 13 13 13 12 12 11 11 11 11 11 11 12 13 15 18 20 22 23 24 23 23 22 22 21 21 20 20 19 19 18 18 18 19 21 22 22 22 22 22 21 21 21
4 3 3 5 7 9 9 9 9 8 8 8 9 10 11 13 15 16 17 17 17 17 16 13 12 13 14 16 17 17 17 16 15 14 14 13 13 12 12 13 13 12 12 13 14 16 18 20 22 23 23 23 22 22 21 21 21 21 21 21 20 20 20 20 21 22 22 22 22 22 22 22 22 22
7 7 7 7 7 7 7 7 8 7 8 8 10 10 11 12 14 16 18 19 19 19 18 16 14 14 15 17 18 18 18 18 18 17 17 16 15 14 14 14 14 14 13 14 15 17 19 21 22 23 23 22 22 21 21 21 21 21 21 22 22 22 22 22 22 23 23 23 23 23 23 23 23 23
7 9 11 11 10 9 9 9 9 9 9 10 10 10 10 10 11 13 15 17 18 19 19 18 16 15 16 17 18 18 19 19 19 19 18 18 17 16 16 16 16 15 15 15 16 18 20 21 22 23 24 23 22 21 21 21 21 22 22 23 23 23 23 23 24 24 25 25 25 25 25 25 25 25
7 9 11 12 12 12 12 12 12 10 10 10 9 9 9 9 9 10 12 14 15 17 19 20 19 18 18 19 20 20 20 19 19 18 18 19 19 18 18 18 17 16 15 16 17 18 19 20 22 23 24 23 22 21 21 21 22 23 23 24 24 25 25 25 26 26 26 26 26 26 26 26 26 26
9 9 10 11 12 12 12 12 12 12 11 11 11 11 11 10 10 11 12 13 15 17 19 20 21 20 20 20 21 21 21 20 19 20 20 20 21 21 20 19 19 17 17 17 18 19 20 21 22 23 23 23 22 22 22 23 23 24 24 25 25 26 26 26 26 26 26 26 26 26 26 26 26 27
8 9 10 10 12 13 13 13 13 13 13 13 13 14 14 13 14 14 14 15 16 18 19 20 20 21 21 21 21 22 22 21 22 22 22 22 23 23 22 21 20 19 18 18 19 20 21 22 23 23 23 22 22 23 23 24 24 25 25 25 25 25 25 25 25 25 25 25 25 25 25 25 25 25
9 10 11 12 13 14 15 15 16 16 16 16 17 17 17 17 17 17 18 18 19 20 20 20 21 21 21 21 22 23 23 22 23 23 24 24 24 24 24 23 21 20 19 19 19 20 22 23 23 23 22 22 22 23 23 24 24 24 24 24 24 24 24 24 24 25 25 25 25 24 24 24 24 24
10 11 12 13 14 15 16 17 18 18 19 19 19 20 20 20 20 20 20 20 21 21 21 22 22 22 21 22 22 23 24 24 25 26 26 26 26 25 25 24 22 21 20 19 19 20 22 22 22 22 22 22 22 22 23 23 24 24 23 23 24 24 25 25 25 26 26 25 25 24 23 23 22 22
11 11 11 12 13 14 15 16 17 18 19 19 20 20 20 20 21 21 21 21 22 23 24 25 26 25 24 24 23 23 24 26 27 28 28 27 27 26 26 24 23 22 21 20 20 21 22 22 21 21 21 21 21 22 23 23 23 23 23 23 24 25 25 25 26 26 26 25 24 23 22 21 21 20
15 15 15 15 15 15 15 16 17 18 19 20 20 21 21 21 21 22 22 22 23 24 25 27 28 28 27 27 26 25 25 26 26 26 26 25 26 26 25 24 23 22 21 22 22 21 21 21 20 19 19 20 20 21 22 22 22 22 22 23 24 24 25 25 25 24 24 23 22 22 21 21 20 19
19 19 20 20 20 20 20 20 20 21 22 23 23 23 23 23 23 23 24 24 25 26 27 28 29 30 30 29 28 28 27 26 27 27 26 26 27 26 25 23 22 21 22 23 22 20 20 20 19 18 19 19 20 21 21 20 20 21 22 23 23 24 23 23 22 22 21 21 21 21 21 21 19 19
22 21 22 22 23 23 23 24 25 26 28 28 28 28 27 27 27 26 26 27 28 29 30 31 32 31 31 30 30 29 29 29 29 30 29 29 29 28 26 24 23 23 23 22 21 19 19 18 18 18 18 19 19 19 19 18 19 21 22 22 22 22 22 21 21 20 20 20 21 21 21 21 20 20
26 26 26 26 26 26 25 25 26 28 29 30 30 30 31 31 31 29 29 30 30 31 32 35 36 33 30 29 28 28 28 30 31 31 28 27 29 28 27 25 23 22 22 21 19 18 17 17 18 18 18 19 18 18 17 18 20 22 22 22 21 21 21 20 20 19 19 20 20 20 20 21 21 21
28 28 28 28 28 29 28 27 27 28 28 29 29 30 31 31 30 29 29 31 31 32 33 36 37 34 30 30 29 27 29 30 31 29 27 26 29 30 29 26 22 20 20 19 17 16 16 17 17 18 18 18 17 17 17 18 20 21 22 22 21 21 20 19 18 18 18 18 18 19 19 20 20 21
27 27 27 27 27 27 28 27 27 27 27 26 27 28 29 30 28 27 27 28 28 30 31 33 34 33 31 30 29 28 30 30 29 28 27 26 28 28 25 22 20 19 18 18 16 15 16 16 17 18 19 18 18 18 17 17 18 20 20 21 20 20 19 17 15 15 15 16 17 17 18 19 19 20
29 28 27 26 26 25 26 26 25 24 24 23 24 25 26 26 26 25 25 24 25 27 29 29 31 32 31 30 30 30 31 30 30 29 27 25 23 20 17 16 16 16 16 16 15 14 15 16 17 17 19 19 19 19 18 15 15 17 19 19 19 18 17 15 14 13 14 14 15 16 17 17 18 19
34 33 32 31 29 27 26 26 26 24 23 23 24 24 23 23 24 25 24 23 23 25 27 27 28 29 30 31 31 31 31 31 30 29 26 22 19 15 13 12 13 14 14 14 13 14 15 16 17 18 19 19 19 19 19 16 14 14 15 16 17 16 16 15 14 13 13 14 15 16 17 17 18 18
39 39 38 36 34 32 30 29 28 27 26 26 26 25 23 23 24 25 26 25 25 25 25 25 26 28 29 32 33 33 33 32 29 25 20 16 14 12 11 11 12 12 13 13 14 15 15 16 17 18 18 18 18 18 18 16 14 13 13 13 14 15 15 14 14 14 14 15 16 17 17 16 16 17
40 40 40 40 39 37 35 33 32 32 31 29 28 25 23 23 24 25 27 27 26 26 26 26 27 28 30 33 35 35 34 30 26 21 17 14 12 11 11 12 13 13 14 14 15 16 16 16 17 18 17 17 17 17 16 15 13 12 13 12 11 12 13 14 14 14 14 15 16 17 17 17 17 18
37 38 38 38 38 38 37 35 34 34 34 33 30 27 25 24 24 25 26 26 26 27 28 28 28 30 32 34 36 33 29 26 22 18 14 12 12 12 12 13 14 15 15 16 16 16 16 16 16 16 16 16 16 16 16 14 11 11 14 12 10 11 13 14 14 14 13 14 15 16 17 18 19 20
35 35 35 36 36 36 36 35 34 34 34 34 31 28 26 25 25 25 25 26 27 28 28 28 30 32 33 34 33 30 26 22 19 15 12 12 12 12 12 13 15 16 16 17 17 16 15 15 15 15 15 15 15 14 13 12 10 10 13 13 11 11 12 12 13 13 13 15 16 17 18 20 21 22
33 34 34 34 33 32 31 31 32 33 33 32 31 29 27 25 25 25 26 27 28 28 28 28 31 32 31 28 27 25 22 19 16 13 12 13 12 11 11 13 15 17 17 17 16 15 14 14 13 13 14 14 13 12 10 10 9 9 10 11 11 10 10 11 12 13 15 17 18 19 20 20 20 20
30 31 31 30 29 28 27 27 28 29 29 28 28 27 26 25 25 25 26 27 27 26 26 27 29 30 28 26 23 21 18 16 14 13 13 12 11 10 10 12 15 16 16 15 14 12 11 11 11 13 13 12 10 8 7 8 9 9 8 9 9 9 9 11 12 15 17 19 20 20 20 19 18 18
27 27 27 26 26 25 25 25 25 25 25 25 25 25 25 25 25 25 25 25 25 24 25 26 28 29 28 25 24 22 19 16 15 13 12 11 9 9 10 12 13 13 12 12 11 10 9 9 11 11 12 11 9 6 4 6 8 8 7 6 6 7 9 11 13 16 19 21 21 20 19 19 18 18
25 25 24 23 23 23 24 24 23 23 23 24 24 24 24 24 24 23 23 23 23 22 23 26 30 30 27 25 25 24 20 18 16 14 12 11 10 10 10 11 11 10 9 8 8 8 8 8 9 9 9 10 8 4 2 4 7 6 5 5 6 7 9 12 15 18 20 21 21 20 18 18 18 18
24 24 24 23 22 22 22 22 21 20 20 20 19 19 19 19 20 20 20 21 22 23 24 29 30 28 26 26 25 23 20 18 16 14 12 11 10 9 9 9 9 8 8 7 7 8 8 7 7 6 5 5 4 1 1 3 4 3 3 4 6 7 10 13 16 19 21 21 20 19 17 17 17 17
23 22 23 23 22 22 23 22 19 18 17 16 16 17 17 17 18 19 19 21 24 26 30 33 31 27 26 24 22 20 18 16 14 13 12 10 10 9 9 9 8 6 6 7 7 8 8 7 6 5 4 3 1 2 1 2 2 2 3 4 6 8 12 15 17 19 21 20 18 18 18 18 18 18
22 21 21 21 22 23 23 21 18 16 15 15 15 17 18 18 18 20 21 22 28 32 33 31 28 25 24 21 19 18 17 14 12 12 11 10 10 9 8 7 6 5 5 6 7 7 8 7 5 5 5 5 4 4 3 4 5 5 5 6 7 10 13 16 17 19 19 17 16 16 18 18 19 20
21 21 21 21 22 22 22 19 17 16 16 15 16 17 18 19 20 22 24 27 32 32 29 26 24 22 21 20 19 17 16 14 13 12 11 10 9 7 6 6 4 4 4 4 6 7 6 5 5 5 6 6 6 5 5 4 3 4 7 8 10 12 14 16 17 18 17 15 14 15 15 17 19 20
20 20 21 21 20 21 20 19 17 16 16 15 16 16 18 20 22 23 25 26 28 25 22 21 20 19 19 18 16 14 13 13 12 11 10 9 7 5 5 4 3 3 4 5 5 5 4 4 5 5 5 5 5 5 5 4 2 2 6 9 11 13 14 15 16 17 15 13 13 14 13 13 15 16
18 18 18 17 17 17 17 17 16 16 15 15 16 17 17 18 18 20 20 21 21 21 20 19 17 16 16 15 13 12 12 11 10 9 8 7 6 5 4 3 3 4 4 4 4 2 3 5 5 4 5 5 5 5 5 5 3 1 5 9 11 13 14 14 14 14 13 13 15 16 15 13 13 13
15 15 15 15 14 14 14 15 15 15 15 15 15 14 13 15 18 21 21 20 20 19 19 18 16 15 14 13 12 11 10 9 8 8 7 6 5 4 4 3 3 4 4 3 2 2 4 4 4 3 4 4 4 5 7 6 4 3 6 9 11 12 13 13 13 13 13 13 15 18 18 17 15 13
10 12 13 13 12 13 13 11 10 10 11 11 13 16 18 19 21 22 23 22 20 17 16 15 13 13 13 12 11 10 8 7 7 7 6 6 5 5 4 4 4 4 5 4 4 5 5 4 3 3 3 3 4 6 7 7 6 5 7 9 10 11 12 12 12 12 12 12 15 18 19 18 17 15
7 8 11 11 11 12 12 9 6 6 8 13 18 20 20 21 22 22 21 19 16 14 13 13 12 12 12 12 11 9 7 6 6 5 5 6 6 6 6 5 4 4 5 5 6 7 6 5 4 4 3 3 4 5 6 7 7 7 8 7 8 10 11 11 12 12 11 11 13 16 17 17 16 16
4 5 8 10 11 11 10 6 4 9 15 19 20 19 19 21 20 19 18 16 14 12 13 13 12 11 11 11 9 7 6 5 5 4 5 8 9 7 6 6 5 5 6 7 7 7 7 6 5 4 4 4 5 6 6 6 7 8 7 6 7 9 10 10 11 11 11 10 11 14 15 14 14 14
6 6 8 9 10 9 5 3 11 16 19 20 18 18 19 18 16 16 16 14 12 12 12 11 10 10 9 8 7 6 5 4 4 5 8 9 9 7 6 6 6 6 7 7 7 8 8 7 6 5 5 5 5 5 5 6 7 8 7 6 6 7 8 9 10 11 10 10 11 13 14 13 13 14
Wind_Direction
217 215 211 202 197 195 191 192 198 203 211 215 207 208 236 249 192 178 172 170 165 157 152 149 142 141 142 141 143 146 151 153 151 146 139 131 125 112 94 80 69 61 56 50 45 41 37 33 24 16 14 12 10 8 6 3 360 356 352 347 343 339 335 333 331 328 326 323 322 320 318 316 313 311
223 219 218 211 200 192 188 189 192 192 197 204 211 218 233 278 232 189 169 162 162 159 159 157 151 149 149 150 154 157 162 163 163 163 161 153 145 122 93 77 63 52 44 39 34 29 26 22 16 12 11 9 8 6 4 2 359 356 352 346 341 336 332 329 326 325 323 321 320 319 318 317 316 315
237 228 222 216 203 193 191 192 189 184 186 196 211 222 216 213 233 189 161 155 159 162 164 163 159 159 159 159 161 166 170 173 178 183 181 175 165 140 98 75 58 44 36 29 24 19 15 13 10 9 6 4 3 2 1 0 358 356 352 346 340 335 331 328 326 324 322 321 320 319 318 318 317 316
270 256 224 211 202 195 192 192 189 183 186 201 214 219 215 194 177 167 154 148 153 158 164 171 172 169 170 171 169 172 177 180 184 188 188 190 182 163 119 67 44 33 25 17 13 9 6 5 5 4 2 360 359 357 357 357 357 356 352 347 341 336 333 331 329 328 326 324 323 321 321 321 320 319
314 316 214 201 197 192 188 189 189 188 193 207 214 215 215 201 181 175 170 161 161 164 169 176 183 184 182 181 178 178 179 181 188 191 196 207 204 197 208 342 4 8 6 1 359 358 357 357 358 357 356 355 354 352 352 354 354 354 353 349 343 339 335 332 330 329 328 328 328 328 329 330 328 326
24 36 137 191 190 184 182 182 187 193 199 204 206 208 213 214 210 207 204 197 192 190 185 185 191 193 192 192 188 183 180 183 192 197 204 218 221 229 255 285 312 331 340 342 344 347 350 352 351 351 351 350 349 349 349 351 352 352 351 348 344 338 334 331 329 328 328 329 329 331 334 336 334 331
70 52 105 176 179 175 174 175 182 189 193 197 200 202 208 217 226 229 228 224 220 220 216 210 209 204 200 199 195 189 187 189 197 203 212 226 235 250 264 270 285 304 317 325 333 340 344 345 346 346 346 345 346 346 347 348 349 349 348 345 340 335 331 327 324 324 325 326 327 330 333 335 334 333
142 110 142 172 171 168 168 170 178 187 193 201 211 217 221 228 235 240 241 239 234 233 237 241 233 217 208 204 200 197 197 198 204 211 221 235 248 261 266 269 281 294 305 315 326 333 336 338 340 341 341 341 342 343 344 346 345 344 342 339 336 331 327 324 321 321 323 325 327 329 332 334 333 332
222 155 157 170 168 167 170 174 181 191 199 207 216 226 235 240 243 246 248 248 245 241 243 253 248 227 215 209 205 205 206 208 213 219 226 237 248 258 264 270 279 287 296 308 319 325 329 332 335 336 337 338 339 340 341 341 341 339 337 335 332 329 325 322 320 320 322 324 326 328 331 333 332 331
231 211 188 181 177 175 176 179 186 192 200 213 229 241 245 246 245 244 246 248 250 249 248 253 252 237 224 214 208 209 213 219 225 229 233 240 248 255 260 265 272 280 290 302 312 319 324 328 331 333 335 335 335 336 337 337 336 335 333 331 328 325 321 319 317 318 319 322 324 326 329 329 329 328
226 214 207 203 200 198 197 198 207 219 232 246 255 258 256 253 250 247 247 249 252 253 250 249 250 242 230 221 215 214 217 222 229 234 239 244 249 254 259 265 270 278 288 298 307 314 320 325 328 330 332 331 331 331 333 333 332 331 328 325 322 319 317 315 314 316 318 321 323 325 325 325 324 323
222 211 210 211 216 223 228 230 235 247 259 263 262 261 260 258 253 251 250 250 251 253 251 250 251 248 238 230 225 223 225 229 234 239 243 246 251 256 260 264 269 275 284 294 302 310 317 321 325 327 328 328 327 329 329 329 328 327 324 321 318 316 315 315 316 317 319 320 321 321 321 320 318 316
217 213 213 217 223 230 236 239 242 248 255 259 264 269 270 266 259 254 250 247 247 247 248 250 253 250 243 237 233 232 237 242 246 249 250 249 251 254 256 260 264 269 276 287 296 304 311 316 319 322 323 323 324 325 326 326 325 323 320 318 317 316 316 317 317 318 318 318 318 317 315 314 313 311
221 222 224 228 232 236 240 242 244 245 246 252 261 267 270 270 267 263 258 253 250 248 250 253 254 252 249 246 242 242 245 246 246 248 252 253 252 252 253 255 259 265 272 281 290 298 304 311 316 319 320 319 321 323 323 323 322 321 319 317 316 316 316 316 317 317 317 317 316 314 312 310 309 308
235 238 241 243 244 246 248 250 252 252 251 254 258 262 265 267 266 265 264 261 257 255 255 256 255 254 255 255 252 250 248 246 245 247 251 254 254 253 254 254 258 265 271 278 285 294 301 309 314 316 316 317 319 320 321 322 321 319 318 317 316 316 316 317 317 317 317 316 314 312 311 310 310 310
262 260 261 260 258 256 256 257 260 261 261 260 260 261 263 264 265 264 264 264 263 261 260 259 257 257 258 259 257 256 256 255 253 252 252 254 255 254 254 254 258 263 269 275 283 292 300 306 311 312 313 315 317 318 319 320 319 318 317 316 316 317 318 318 317 316 315 314 313 313 314 315 316 315
273 272 271 268 267 267 265 265 266 267 269 268 267 268 269 270 270 268 266 266 265 264 263 262 261 261 261 261 261 261 261 259 256 255 255 255 255 254 253 254 256 261 267 274 283 292 299 304 308 309 310 313 315 317 318 318 317 316 316 317 319 320 321 320 319 317 316 315 315 316 318 319 319 316
272 272 271 270 269 269 270 271 270 271 273 275 275 277 278 279 278 275 273 271 268 265 263 262 262 263 264 266 267 266 262 258 257 258 259 258 255 251 249 250 254 260 267 274 283 292 297 300 303 304 307 311 314 315 316 316 315 315 316 319 321 323 323 322 320 318 317 316 317 319 322 322 319 315
265 267 268 269 268 268 270 271 272 274 276 278 279 281 283 283 283 281 281 279 276 271 266 263 263 264 265 267 268 266 263 261 260 259 257 254 250 245 244 247 253 259 267 275 283 288 293 295 296 299 304 308 310 312 314 314 314 315 318 321 323 323 322 321 318 316 315 315 318 322 324 323 318 314
260 262 264 266 267 268 269 270 271 274 275 276 278 279 281 283 283 283 283 282 281 278 274 270 267 265 265 265 265 263 260 260 258 253 246 242 241 240 241 245 253 263 271 276 280 284 286 289 293 298 304 307 309 311 312 312 313 314 317 322 324 323 322 319 315 313 312 314 318 322 324 323 320 315
266 264 264 265 266 267 267 268 270 271 273 275 276 277 279 280 280 280 280 279 280 280 280 279 274 268 263 261 259 257 254 254 254 249 243 242 243 241 238 243 254 266 273 275 277 279 282 286 292 299 304 307 310 310 311 314 316 317 320 323 325 324 322 318 313 310 311 314 318 321 322 322 320 317
271 270 269 268 268 268 268 268 269 270 271 272 273 274 275 274 273 274 275 276 276 277 279 278 274 267 261 259 257 255 253 253 253 250 246 246 245 241 241 249 257 264 269 272 274 277 281 288 296 302 305 308 309 310 315 320 321 321 322 323 324 324 319 314 310 309 311 313 316 317 318 319 318 315
270 270 271 271 272 273 272 271 271 272 272 271 271 272 273 273 274 274 275 276 276 276 276 276 274 273 273 272 267 261 255 252 250 249 246 244 243 242 245 251 255 257 263 268 271 276 284 292 299 305 308 310 310 311 318 323 322 321 321 321 322 320 316 312 310 310 311 313 314 314 314 314 313 311
269 269 270 271 271 272 272 271 271 272 274 274 274 274 275 278 280 280 279 280 281 281 278 277 277 280 280 276 269 262 257 252 249 250 249 245 243 243 242 243 246 251 260 266 270 278 287 296 302 307 310 311 311 312 318 323 321 319 320 321 320 319 318 318 318 315 312 312 312 311 311 310 309 308
275 274 273 271 269 268 268 266 264 265 269 272 273 273 275 279 281 281 281 282 284 285 283 281 281 280 277 272 267 262 259 255 252 251 247 240 239 237 232 233 242 252 259 267 274 283 292 300 305 308 310 310 311 313 318 324 323 320 320 321 320 321 324 327 327 322 317 316 315 313 311 309 307 306
279 278 277 275 273 270 268 265 262 260 261 263 266 269 273 277 279 280 279 278 278 280 282 284 283 278 272 267 263 258 252 247 244 242 237 231 229 229 229 235 247 258 266 274 283 291 298 304 308 310 310 310 312 315 320 328 331 325 321 319 318 321 326 329 330 328 323 321 318 314 313 310 307 307
278 277 277 276 274 272 270 267 265 262 260 261 263 267 270 274 276 275 274 273 271 270 274 279 281 276 269 262 257 252 245 238 233 229 226 226 229 235 243 252 259 267 275 283 290 297 303 309 311 310 309 310 315 318 322 331 336 328 320 317 316 319 326 329 330 331 328 324 320 317 317 316 313 313
277 277 276 275 273 272 270 268 266 264 263 262 263 267 270 271 271 272 272 272 269 265 265 267 270 270 266 260 252 246 238 230 224 221 222 225 231 242 257 268 274 278 284 290 296 302 308 311 309 308 310 313 318 321 323 331 336 325 317 321 323 323 326 329 330 333 331 326 324 323 323 322 319 318
277 277 277 275 274 272 271 268 265 263 261 261 261 263 265 267 269 271 272 272 269 265 263 263 264 265 263 257 248 237 228 221 218 218 219 224 235 251 267 279 284 287 292 297 301 305 308 308 306 309 313 315 319 321 323 330 336 321 316 327 336 328 326 330 333 335 333 328 326 327 327 325 323 321
277 278 278 278 277 276 273 271 268 263 260 259 259 258 260 264 266 268 270 271 270 268 266 264 261 256 251 243 232 220 213 212 213 213 215 226 241 259 277 286 289 292 296 299 301 303 305 305 308 312 314 316 318 319 320 327 328 317 317 330 339 332 330 334 335 334 331 328 328 328 327 324 321 319
275 276 278 280 280 280 279 276 272 268 265 263 261 259 260 261 262 265 267 269 269 268 265 263 257 246 232 217 208 203 203 205 207 208 216 232 249 268 283 288 289 291 294 294 296 299 302 306 312 314 313 314 314 314 318 320 316 314 323 335 339 339 337 336 333 331 330 330 331 331 329 325 322 321
270 272 276 278 281 282 281 277 274 272 269 267 264 262 261 260 261 264 265 264 265 265 263 260 251 233 213 199 200 204 204 203 205 209 221 239 259 273 280 283 284 285 287 289 292 297 301 306 312 312 311 312 312 315 320 311 306 317 334 341 344 347 345 339 335 333 332 333 336 337 336 334 332 329
266 267 271 276 280 282 280 277 274 270 267 266 263 261 260 260 261 262 263 264 265 264 260 249 231 211 198 196 202 205 202 202 208 217 229 244 256 264 270 273 274 275 278 283 289 295 299 305 310 309 309 311 314 329 335 302 301 322 342 342 343 349 349 346 341 337 336 337 340 343 342 341 338 337
266 267 269 273 278 282 281 276 272 268 264 260 257 256 257 258 259 262 263 263 261 257 246 228 210 198 193 196 199 199 199 202 208 217 228 238 245 252 257 259 259 261 268 277 285 288 291 299 305 305 308 311 313 331 2 301 304 328 350 341 336 345 351 349 345 341 341 342 342 344 344 344 344 345
269 272 271 271 276 283 283 277 273 270 265 260 258 258 260 262 265 269 268 261 255 243 221 205 199 197 196 195 193 194 200 204 208 215 223 230 237 240 240 242 247 257 270 278 277 273 274 285 292 290 292 303 309 350 69 303 304 333 2 349 341 347 353 352 347 345 345 344 342 343 346 349 352 353
277 279 276 273 275 281 282 279 274 272 271 269 268 267 269 271 274 275 272 261 245 225 205 196 196 196 193 191 191 194 200 205 209 215 220 226 230 228 228 238 250 262 275 278 272 270 275 285 293 289 287 306 5 81 55 344 350 7 5 2 357 351 351 352 350 347 345 344 344 346 350 354 355 355
285 285 281 278 276 276 277 276 274 274 273 272 272 272 274 275 275 274 269 249 226 210 200 196 192 186 184 187 191 194 198 204 210 215 218 218 217 219 228 247 263 272 273 270 268 271 278 289 306 324 329 340 24 67 59 19 12 358 344 358 6 357 351 351 350 347 345 346 348 350 351 351 350 350
289 287 285 283 278 272 271 271 271 272 271 271 273 274 273 271 267 263 252 231 210 201 196 191 184 180 183 189 191 192 195 200 204 208 209 208 209 219 239 254 265 265 255 253 262 272 284 303 331 353 359 1 24 55 64 46 20 338 327 347 4 359 349 347 346 344 343 348 354 354 350 346 345 345
293 291 289 285 279 275 273 271 270 270 269 269 271 272 272 268 258 243 227 208 193 186 185 183 181 183 187 189 190 194 198 197 195 195 196 200 210 229 244 253 255 229 220 228 243 264 300 339 359 13 22 22 26 35 37 36 43 314 323 344 357 354 344 341 341 340 342 351 359 0 358 352 349 352
298 297 292 286 283 283 280 275 272 269 267 268 269 268 266 256 234 208 189 177 170 168 173 181 186 188 186 185 185 188 189 186 182 184 192 205 218 229 235 239 218 190 191 204 216 240 357 18 29 34 38 42 42 27 13 18 52 30 340 344 349 345 339 339 341 342 346 356 3 7 9 7 6 12
303 302 292 283 283 283 280 276 271 266 267 270 263 244 222 203 186 171 162 160 163 167 174 184 188 184 180 179 177 176 179 179 178 187 200 210 214 212 207 201 182 162 152 151 140 75 40 39 50 59 58 57 44 20 12 25 57 47 348 341 344 343 340 341 345 347 352 0 6 9 10 12 19 26
305 303 291 283 288 294 293 286 273 266 266 253 223 199 185 176 169 161 157 159 165 170 175 180 178 172 169 169 168 170 180 188 190 198 206 203 194 183 166 153 142 134 132 123 84 51 36 33 43 60 68 56 22 8 11 20 28 14 346 337 339 341 340 342 347 353 357 2 7 10 9 10 18 25
296 294 287 293 311 321 316 304 281 253 224 201 190 183 176 168 162 157 156 158 161 162 161 162 164 163 163 165 167 170 182 194 201 205 199 182 166 152 140 132 120 104 100 91 65 43 32 28 26 30 37 22 358 354 358 354 348 345 340 336 338 339 338 341 350 359 4 5 9 12 10 8 13 19
326 305 300 314 330 333 325 304 239 199 187 182 179 173 166 161 158 156 156 155 151 146 147 154 163 167 166 167 170 174 180 190 195 187 169 157 150 143 134 126 111 88 78 77 66 49 42 39 25 8 3 353 338 331 334 340 347 351 349 346 344 340 337 343 354 3 9 15 17 16 13 10 11 15
356 333 326 326 328 330 324 210 183 180 177 172 167 161 159 158 154 150 148 143 135 133 141 153 162 166 167 167 166 167 173 179 169 153 148 147 145 139 125 112 99 79 71 76 73 58 50 48 36 17 5 352 337 334 342 356 7 11 5 355 347 340 338 348 358 1 6 17 20 15 11 11 8 8